Location: Bucquoy
(50.1391°N, 2.7097°E)
Time: 09:15:31
(UTC+00:00)

Cosmos 1733 - Pass Details

Date: 06 May 2021
Orbit: 505 x 519 km, 82.5° (Epoch: 21 June)

Event Time Altitude Azimuth Distance (km) Brightness Sun altitude
Rises 01:34:07 0° 343° (NNW) 2,621 7.5 -19.2°
Reaches altitude 10° 01:36:21 10° 335° (NNW) 1,731 6.3 -19.0°
Maximum altitude 01:39:52 38° 267° (W) 789 3.8 -18.7°
Enters shadow 01:40:01 38° 261° (W) 791 3.8 -18.7°
